Weather History for Kelso-Longview, WA

Change the Weather History Date:

Sunday, August 4, 2013

  Actual Average Record
Temperature  
Mean Temperature 70 °F -  
Max Temperature 84 °F 76 °F 96 °F (2012)
Min Temperature 57 °F 54 °F 48 °F (2006)
Cooling Degree Days 6    
Growing Degree Days 20 (Base 50)    
Moisture  
Dew Point 56 °F    
Average Humidity 70    
Maximum Humidity 88    
Minimum Humidity 45    
Precipitation  
Precipitation 0.00 in - - ()
Sea Level Pressure  
Sea Level Pressure 30.03 in    
Wind  
Wind Speed 3 mph (NNW)    
Max Wind Speed 10 mph    
Max Gust Speed 17 mph    
Visibility 10 miles    
Events      
Averages and records for this station are not official NWS values.
T = Trace of Precipitation, MM = Missing Value Source: NWS Daily Summary

Daily Weather History Graph

Daily Weather History Graph

Search for Another Location

Airport:

Trip Planner

Search our weather history database for the weather conditions in past years. The results will help you decide how hot, cold, wet, or windy it might be!

Date:

Astronomy

Aug. 04, 2013 Rise Set
Actual Time 5:57 AM PDT 8:36 PM PDT
Civil Twilight 5:23 AM PDT 9:10 PM PDT
Nautical Twilight 4:40 AM PDT 9:53 PM PDT
Astronomical Twilight 3:50 AM PDT 10:43 PM PDT
Moon 4:02 AM PDT (8/4) 7:03 PM PDT (8/4)
Length of Visible Light 15h 47m
Length of Day
14h 39m
Waning Crescent, 4% of the Moon is Illuminated
Aug 4
Waning Crescent
Aug 6
New
Aug 14
First Quarter
Aug 20
Full
Aug 28
Last Quarter

Hourly Weather History & Observations

Time (PDT) Temp. Heat Index Dew Point Humidity Pressure Visibility Wind Dir Wind Speed Gust Speed Precip Events Conditions
12:15 AM 62.6 °F - 55.4 °F 77% 30.07 in 10.0 mi NNE 3.5 mph - N/A   Clear
12:35 AM 62.6 °F - 53.6 °F 72% 30.06 in 10.0 mi Calm Calm - N/A   Clear
12:55 AM 60.8 °F - 53.6 °F 77% 30.06 in 10.0 mi Calm Calm - N/A   Clear
1:15 AM 60.8 °F - 53.6 °F 77% 30.06 in 10.0 mi Calm Calm - N/A   Clear
1:35 AM 60.8 °F - 53.6 °F 77% 30.06 in 10.0 mi Calm Calm - N/A   Clear
1:55 AM 59.0 °F - 53.6 °F 82% 30.06 in 10.0 mi Calm Calm - N/A   Clear
2:15 AM 60.8 °F - 53.6 °F 77% 30.06 in 10.0 mi Calm Calm - N/A   Clear
2:35 AM 59.0 °F - 53.6 °F 82% 30.06 in 10.0 mi Calm Calm - N/A   Clear
2:55 AM 59.0 °F - 53.6 °F 82% 30.06 in 10.0 mi Calm Calm - N/A   Clear
3:15 AM 57.2 °F - 53.6 °F 88% 30.06 in 10.0 mi Calm Calm - N/A   Clear
3:35 AM 57.2 °F - 53.6 °F 88% 30.06 in 10.0 mi Calm Calm - N/A   Clear
3:55 AM 57.2 °F - 53.6 °F 88% 30.06 in 10.0 mi Calm Calm - N/A   Clear
4:15 AM 57.2 °F - 53.6 °F 88% 30.06 in 10.0 mi Calm Calm - N/A   Clear
4:35 AM 57.2 °F - 53.6 °F 88% 30.06 in 10.0 mi Calm Calm - N/A   Clear
4:55 AM 59.0 °F - 55.4 °F 88% 30.06 in 10.0 mi North 4.6 mph - N/A   Clear
5:15 AM 59.0 °F - 53.6 °F 82% 30.06 in 10.0 mi North 4.6 mph - N/A   Scattered Clouds
5:35 AM 59.0 °F - 55.4 °F 88% 30.07 in 10.0 mi Calm Calm - N/A   Mostly Cloudy
5:55 AM 59.0 °F - 53.6 °F 82% 30.07 in 10.0 mi Calm Calm - N/A   Mostly Cloudy
6:15 AM 57.2 °F - 53.6 °F 88% 30.07 in 10.0 mi Calm Calm - N/A   Clear
6:35 AM 57.2 °F - 53.6 °F 88% 30.07 in 10.0 mi Calm Calm - N/A   Clear
6:55 AM 57.2 °F - 53.6 °F 88% 30.08 in 10.0 mi Calm Calm - N/A   Clear
7:15 AM 57.2 °F - 53.6 °F 88% 30.08 in 10.0 mi Calm Calm - N/A   Mostly Cloudy
7:35 AM 57.2 °F - 53.6 °F 88% 30.08 in 10.0 mi NNW 3.5 mph - N/A   Overcast
7:55 AM 59.0 °F - 53.6 °F 82% 30.08 in 10.0 mi NNW 3.5 mph - N/A   Overcast
8:15 AM 60.8 °F - 53.6 °F 77% 30.08 in 10.0 mi NNW 5.8 mph - N/A   Overcast
8:35 AM 60.8 °F - 53.6 °F 77% 30.08 in 10.0 mi NNW 4.6 mph - N/A   Overcast
8:55 AM 62.6 °F - 53.6 °F 72% 30.08 in 10.0 mi North 4.6 mph - N/A   Scattered Clouds
9:15 AM 64.4 °F - 55.4 °F 73% 30.07 in 10.0 mi North 4.6 mph - N/A   Clear
9:35 AM 66.2 °F - 55.4 °F 68% 30.07 in 10.0 mi North 8.1 mph - N/A   Clear
9:55 AM 66.2 °F - 55.4 °F 68% 30.07 in 10.0 mi NNE 6.9 mph - N/A   Clear
10:15 AM 68.0 °F - 55.4 °F 64% 30.06 in 10.0 mi North 5.8 mph - N/A   Clear
10:35 AM 69.8 °F - 55.4 °F 60% 30.06 in 10.0 mi NNW 8.1 mph - N/A   Clear
10:55 AM 71.6 °F - 57.2 °F 60% 30.06 in 10.0 mi NNW 9.2 mph - N/A   Clear
11:15 AM 71.6 °F - 57.2 °F 60% 30.05 in 10.0 mi North 6.9 mph - N/A   Clear
11:35 AM 73.4 °F - 57.2 °F 57% 30.05 in 10.0 mi North 6.9 mph - N/A   Clear
11:55 AM 73.4 °F - 57.2 °F 57% 30.04 in 10.0 mi NNW 8.1 mph - N/A   Clear
12:15 PM 75.2 °F - 59.0 °F 57% 30.03 in 10.0 mi North 10.4 mph - N/A   Clear
12:35 PM 77.0 °F - 59.0 °F 54% 30.03 in 10.0 mi NNW 9.2 mph - N/A   Clear
12:55 PM 78.8 °F - 60.8 °F 54% 30.02 in 10.0 mi NNW 5.8 mph - N/A   Clear
1:15 PM 78.8 °F - 60.8 °F 54% 30.02 in 10.0 mi NNW 8.1 mph - N/A   Clear
1:35 PM 80.6 °F 81.5 °F 60.8 °F 51% 30.01 in 10.0 mi NNW 4.6 mph - N/A   Clear
1:55 PM 82.4 °F 82.9 °F 60.8 °F 48% 30.01 in 10.0 mi North 6.9 mph - N/A   Clear
2:15 PM 82.4 °F 82.9 °F 60.8 °F 48% 30.00 in 10.0 mi West 8.1 mph - N/A   Clear
2:35 PM 84.2 °F 84.4 °F 60.8 °F 45% 29.99 in 10.0 mi North 8.1 mph - N/A   Clear
2:55 PM 84.2 °F 84.4 °F 60.8 °F 45% 29.99 in 10.0 mi North 6.9 mph - N/A   Clear
3:15 PM 84.2 °F 84.4 °F 60.8 °F 45% 29.98 in 10.0 mi North 6.9 mph - N/A   Clear
3:35 PM 84.2 °F 84.4 °F 60.8 °F 45% 29.97 in 10.0 mi North 8.1 mph - N/A   Clear
3:55 PM 84.2 °F 84.4 °F 60.8 °F 45% 29.96 in 10.0 mi NW 4.6 mph - N/A   Clear
4:15 PM - - - N/A% 29.96 in 10.0 mi NNW 5.8 mph - N/A   Clear
4:35 PM - - - N/A% 29.95 in 10.0 mi West 5.8 mph - N/A   Clear
4:55 PM - - - N/A% 29.95 in 10.0 mi WNW 5.8 mph - N/A   Clear
5:15 PM - - - N/A% 29.95 in 10.0 mi West 9.2 mph - N/A   Clear
5:35 PM - - - N/A% 29.95 in 10.0 mi West 8.1 mph - N/A   Clear
5:55 PM - - - N/A% 29.95 in 10.0 mi West 4.6 mph - N/A   Clear
6:15 PM - - - N/A% 29.95 in 10.0 mi West 10.4 mph 17.3 mph N/A   Clear
6:35 PM - - - N/A% 29.95 in 10.0 mi WNW 5.8 mph - N/A   Clear
6:55 PM - - - N/A% 29.95 in 10.0 mi WNW 3.5 mph - N/A   Clear
7:15 PM - - - N/A% 29.96 in 10.0 mi West 5.8 mph - N/A   Clear
7:35 PM 75.2 °F - 60.8 °F 61% 29.97 in 10.0 mi WNW 4.6 mph - N/A   Clear
7:55 PM 73.4 °F - 59.0 °F 61% 29.97 in 10.0 mi WNW 4.6 mph - N/A   Clear
8:15 PM 71.6 °F - 57.2 °F 60% 29.98 in 10.0 mi WNW 3.5 mph - N/A   Clear
8:35 PM 69.8 °F - 57.2 °F 64% 29.99 in 10.0 mi WNW 4.6 mph - N/A   Clear
8:55 PM 69.8 °F - 57.2 °F 64% 29.99 in 10.0 mi West 3.5 mph - N/A   Clear
9:15 PM 68.0 °F - 57.2 °F 68% 30.00 in 10.0 mi WNW 4.6 mph - N/A   Clear
9:35 PM 66.2 °F - 57.2 °F 73% 30.01 in 10.0 mi WNW 4.6 mph - N/A   Clear
9:55 PM 66.2 °F - 55.4 °F 68% 30.01 in 10.0 mi NW 3.5 mph - N/A   Clear
10:15 PM 64.4 °F - 55.4 °F 73% 30.01 in 10.0 mi NW 3.5 mph - N/A   Clear
10:35 PM 64.4 °F - 55.4 °F 73% 30.01 in 10.0 mi NW 4.6 mph - N/A   Clear
10:55 PM 64.4 °F - 55.4 °F 73% 30.02 in 10.0 mi NNW 3.5 mph - N/A   Clear
11:15 PM 64.4 °F - 55.4 °F 73% 30.02 in 10.0 mi NNW 4.6 mph - N/A   Clear
11:35 PM 62.6 °F - 55.4 °F 77% 30.03 in 10.0 mi NW 3.5 mph - N/A   Clear
11:55 PM 62.6 °F - 55.4 °F 77% 30.03 in 10.0 mi NW 4.6 mph - N/A   Clear